北斗三号 M26 (BEIDOU 3 M26)

导读 | 星芒AI

BEIDOU-3 M26 是中国北斗三号全球卫星导航系统的一部分,属于地球静止轨道(GEO)卫星。该卫星于2020年发射,主要用于提供高精度定位、导航和授时服务。作为北斗三号中圆地球轨道(MEO)卫星星座的补充,M26 卫星增强了系统的覆盖范围与信号稳定性,提升了在复杂环境下的服务性能。其先进载荷和抗干扰能力,使北斗系统在民用与军用领域均具备更强的可靠性与全球服务能力。

Basic Information
目录编号:
58655
目录名称:
BEIDOU 3 M26
国际标识:
2023-207B
轨道中心:
EARTH
卫星名称:
北斗三号 M26
卫星全名:
北斗三号 M26 (BEIDOU 3 M26)
卫星状态:
在轨 (已飞行855 天)
发射日期:
2023-12-26 UTC
国别 :
中国 (CN)
星等 :
--
Orbit Information
数据来源 国际轨道数据 AOE轨道数据
星历时间 2026-04-29T00:43:01+0800
8小时前
查看轨道信息
2026-04-28T19:00:00+0800
13小时前
查看轨道信息
半长轴 27906.319km 27906.319km
偏心率 0.000492 0.0004941
轨道倾角 55.713° 55.713°
近地点辐角 305.461° 304.940°
升交点赤经 63.958° 63.966°
平近点角 54.458° 255.277°
近地点 21514.452km 21514.393km
远地点 21541.912km 21541.971km
周期 773.239分钟 773.239分钟
每日圈数 1.862297 1.862297
Detailed Information
平衡模式:
三轴稳定
制造商(研发单位):
中国空间技术研究院
制造商所在国:
中国
使用方式:
暂无
工作目标:
为全球用户提供连续、稳定、可靠的北斗导航、定位服务
预期寿命:
12年
Satellite Introduction
北斗卫星导航系统是中国着眼于国家安全和经济社会发展需要,自主建设运行的全球卫星导航系统,是为全球用户提供全天候、全天时、高精度的定位、导航和授时服务的国家重要时空基础设施。该卫星仍在工作。
2D Orbit Map
3D Orbit Map
Orbit Altitude Analysis Chart
Orbit Inclination Analysis Chart
Orbit Comprehensive Analysis Chart
View Comprehensive Chart